TimeEET,TemperatureF,Dew PointF,Humidity,Sea Level PressureIn,VisibilityMPH,Wind Direction,Wind SpeedMPH,Gust SpeedMPH,PrecipitationIn,Events,Conditions,WindDirDegrees,DateUTC
12:50 AM,33.8,33.8,100,30.06,5.0,ESE,3.5,-,N/A,,Mostly Cloudy,110,2013-11-28 22:50:00
1:50 AM,32.0,30.2,93,30.06,5.0,North,2.3,-,N/A,,Mostly Cloudy,10,2013-11-28 23:50:00
2:00 AM,31,30,95,,5,North,2.3,,,,Mist,10,2013-11-29 00:00:00
2:50 AM,32.0,32.0,100,30.04,6.2,East,2.3,-,N/A,,Mostly Cloudy,80,2013-11-29 00:50:00
3:50 AM,32.0,32.0,100,30.04,5.0,Variable,1.2,-,N/A,,Mostly Cloudy,0,2013-11-29 01:50:00
4:50 AM,32.0,30.2,93,30.04,5.0,East,5.8,-,N/A,,Mostly Cloudy,90,2013-11-29 02:50:00
5:00 AM,32,31,94,,5,East,5.8,,,,Mist,90,2013-11-29 03:00:00
5:50 AM,35.6,32.0,87,30.04,5.0,SSE,5.8,-,N/A,,Mostly Cloudy,150,2013-11-29 03:50:00
6:50 AM,39.2,28.4,65,30.04,5.0,SE,8.1,-,N/A,,Mostly Cloudy,140,2013-11-29 04:50:00
7:50 AM,42.8,28.4,57,30.04,5.0,SSE,9.2,-,N/A,,Mostly Cloudy,150,2013-11-29 05:50:00
8:00 AM,43,29,46,,5,SSE,9.2,,,,Haze,150,2013-11-29 06:00:00
8:50 AM,44.6,33.8,66,30.04,6.2,South,12.7,-,N/A,,Mostly Cloudy,170,2013-11-29 06:50:00
9:50 AM,44.6,33.8,66,30.01,6.2,South,12.7,-,N/A,,Mostly Cloudy,170,2013-11-29 07:50:00
10:50 AM,46.4,33.8,62,29.98,6.2,South,12.7,-,N/A,,Mostly Cloudy,170,2013-11-29 08:50:00
11:00 AM,46,34,53,,6,South,12.7,,,,Mostly Cloudy,170,2013-11-29 09:00:00
11:46 AM,46.4,33.8,62,29.95,6.2,SSW,8.1,-,N/A,Rain,Light Rain Showers,200,2013-11-29 09:46:00
11:50 AM,46.4,33.8,62,29.95,6.2,SW,11.5,-,N/A,Rain,Light Rain Showers,220,2013-11-29 09:50:00
12:29 PM,48.2,33.8,58,29.92,6.2,Variable,5.8,17.3,N/A,,Mostly Cloudy,0,2013-11-29 10:29:00
12:50 PM,48.2,33.8,58,29.92,6.2,SE,6.9,-,N/A,,Mostly Cloudy,130,2013-11-29 10:50:00
1:50 PM,48.2,33.8,58,29.92,5.0,SSW,8.1,-,N/A,,Mostly Cloudy,200,2013-11-29 11:50:00
2:00 PM,48,34,48,,5,SSW,8.1,,,,Haze,200,2013-11-29 12:00:00
2:14 PM,46.4,33.8,62,29.89,5.0,South,8.1,-,N/A,Rain,Light Rain Showers,170,2013-11-29 12:14:00
2:50 PM,44.6,35.6,71,29.89,5.0,SSE,10.4,-,N/A,Rain,Light Rain Showers,160,2013-11-29 12:50:00
3:50 PM,44.6,37.4,76,29.92,4.3,West,8.1,-,N/A,Rain,Light Rain Showers,260,2013-11-29 13:50:00
4:26 PM,41.0,37.4,87,29.89,4.3,ESE,4.6,-,N/A,,Mostly Cloudy,110,2013-11-29 14:26:00
4:41 PM,41.0,37.4,87,29.89,3.1,ESE,4.6,-,N/A,,Mostly Cloudy,110,2013-11-29 14:41:00
4:50 PM,41.0,37.4,87,29.89,5.0,ESE,4.6,-,N/A,,Mostly Cloudy,110,2013-11-29 14:50:00
5:00 PM,42,37,76,,5,ESE,4.6,,,Rain,Light Rain Showers,110,2013-11-29 15:00:00
5:50 PM,44.6,35.6,71,29.89,5.0,Variable,4.6,-,N/A,Rain,Light Rain Showers,0,2013-11-29 15:50:00
6:15 PM,44.6,35.6,71,29.89,5.6,South,9.2,-,N/A,,Mostly Cloudy,170,2013-11-29 16:15:00
6:50 PM,44.6,37.4,76,29.89,5.6,SSW,10.4,-,N/A,,Mostly Cloudy,200,2013-11-29 16:50:00
6:52 PM,44.6,37.4,76,29.89,5.0,SSW,10.4,-,N/A,Rain,Light Rain Showers,210,2013-11-29 16:52:00
7:50 PM,42.8,37.4,81,29.89,5.0,South,10.4,-,N/A,Rain,Light Rain Showers,190,2013-11-29 17:50:00
8:00 PM,44,37,67,,5,South,10.4,,,Rain,Light Rain Showers,190,2013-11-29 18:00:00
8:50 PM,42.8,37.4,81,29.89,5.0,SSE,3.5,-,N/A,Rain,Light Rain Showers,160,2013-11-29 18:50:00
9:50 PM,41.0,37.4,87,29.89,4.3,ENE,2.3,-,N/A,Rain,Light Rain Showers,60,2013-11-29 19:50:00
10:50 PM,41.0,37.4,87,29.89,4.3,ESE,8.1,-,N/A,,Mostly Cloudy,120,2013-11-29 20:50:00
11:00 PM,40,38,88,,4,ESE,8.1,,,Rain,Light Rain Showers,120,2013-11-29 21:00:00
11:50 PM,39.2,37.4,93,29.89,4.3,SSE,2.3,-,N/A,Rain,Light Rain Showers,160,2013-11-29 21:50:00